This is the latest recevied weather packets stored in our database for station/object SQ9RHX-13. If no packets are shown the sender has not sent any weather packets the latest 10 day(s).
| Time | Temp. | Humidity | Pressure | Rain* | Wind** | Luminosity | Snow |
|---|---|---|---|---|---|---|---|
| 1777562403 | 16.67° C | 35% | 1032.5 hPa | 0 mm | - | 195 W/m² | - |
| 1777562105 | 16.67° C | 35% | 1032.5 hPa | 0 mm | - | 207 W/m² | - |
| 1777561802 | 16.11° C | 34% | 1032.6 hPa | 0 mm | - | 216 W/m² | - |
| 1777561503 | 16.11° C | 35% | 1032.5 hPa | 0 mm | - | 233 W/m² | - |
| 1777561204 | 16.11° C | 35% | 1032.6 hPa | 0 mm | - | 246 W/m² | - |
| 1777560903 | 16.11° C | 35% | 1032.9 hPa | 0 mm | - | 257 W/m² | - |
| 1777560604 | 16.11° C | 35% | 1032.9 hPa | 0 mm | - | 270 W/m² | - |
| 1777560303 | 16.11° C | 34% | 1032.8 hPa | 0 mm | - | 288 W/m² | - |
| 1777560003 | 16.11° C | 35% | 1032.8 hPa | 0 mm | - | 301 W/m² | - |
| 1777559704 | 16.11° C | 34% | 1032.9 hPa | 0 mm | - | 312 W/m² | - |
| 1777559403 | 16.11° C | 34% | 1033.1 hPa | 0 mm | - | 333 W/m² | - |
| 1777559103 | 15.56° C | 35% | 1033 hPa | 0 mm | - | 340 W/m² | - |
| 1777558805 | 15.56° C | 33% | 1033.2 hPa | 0 mm | - | 346 W/m² | - |
| 1777558505 | 15.56° C | 35% | 1033.1 hPa | 0 mm | - | 389 W/m² | - |
| 1777558203 | 15° C | 36% | 1033.2 hPa | 0 mm | - | 435 W/m² | - |
| 1777557905 | 15° C | 35% | 1033.1 hPa | 0 mm | - | 109 W/m² | - |
| 1777557603 | 15.56° C | 35% | 1033.1 hPa | 0 mm | - | 141 W/m² | - |
| 1777557303 | 16.11° C | 33% | 1033.2 hPa | 0 mm | - | 146 W/m² | - |
| 1777557002 | 17.22° C | 32% | 1033.3 hPa | 0 mm | - | 216 W/m² | - |
| 1777556703 | 17.22° C | 32% | 1033.1 hPa | 0 mm | - | 395 W/m² | - |
| 1777556404 | 17.78° C | 30% | 1033.2 hPa | 0 mm | - | 606 W/m² | - |
| 1777556103 | 16.67° C | 31% | 1033.3 hPa | 0 mm | - | 608 W/m² | - |
| 1777555805 | 16.67° C | 32% | 1033.4 hPa | 0 mm | - | 577 W/m² | - |
| 1777555504 | 16.67° C | 33% | 1033.4 hPa | 0 mm | - | 547 W/m² | - |
| 1777555203 | 16.67° C | 31% | 1033.4 hPa | 0 mm | - | 532 W/m² | - |
* Rain latest hour (hover to see other rain measurements)
** Current wind speed in m/s (hover to see current wind gust speed)